Regional Weather Roundup
Issued by NWS

Current Version | Previous Version | Text Only | Print | Product List | Glossary On
Versions: 1 2 3 4 5 6 7 8 9 10 11 12 13 14 15 16 17 18 19 20 21 22 23 24 25 26 27 28 29 30 31 32 33 34 35 36 37 38 39 40 41 42 43 44 45 46 47 48 49 50
000
ASMX46 KSGX 280110
RWRMX

MEXICAN WEATHER ROUNDUP
NATIONAL WEATHER SERVICE SAN DIEGO CA
500 PM PST SAT DEC 27 2014

BAJA CALIFORNIA

CITY           SKY/WX    TMP DP  RH WIND       PRES   REMARKS
ENSENADA NW      N/A     60  32  35 E10       30.22R
LA PAZ         CLEAR     64  43  45 NE17      30.12
LORETO         CLEAR     63  39  42 N7        30.12R
MEXICALI       PTCLDY    57   9  14 NW5       30.31
S.J. DEL CABO  PTCLDY    64  50  59 NW16      30.08R
TIJUANA        PTCLDY    55  25  30 NW8       30.29R

NORTHWESTERN MEXICO

CITY           SKY/WX    TMP DP  RH WIND       PRES   REMARKS
CHIHUAHUA      MOCLDY    45  28  53 N17       30.13
CULIACAN       PTCLDY    73  57  56 W12       30.00
GUAYMAS        CLEAR     64  16  15 NW14      30.11
HERMOSILLO     CLEAR     61   9  12 NW6       30.17
JUAREZ         MOCLDY    41  34  75 SE8       30.18
LOS MOCHIS     CLEAR     61  34  36 NW15      30.08R
OBREGON        CLEAR     61  10  13 NW9       30.07

NORTHEASTERN MEXICO

CITY           SKY/WX    TMP DP  RH WIND       PRES   REMARKS
MATAMOROS      CLOUDY    73  72  94 SW6       30.01
MONTERREY      CLOUDY    61  48  63 W7        30.06R
NUEVO LAREDO   DRIZZLE   54  39  58 NE21      30.19
PIEDRAS NEGRAS CLOUDY    48  37  66 NW12      30.22
REYNOSA        CLOUDY    66  57  72 NW14      30.03
SALTILLO       LGT RAIN  63  48  59 N7        30.18R
TORREON        MOCLDY    66  36  32 W5        29.99R
VICTORIA       MOCLDY    70  63  78 NW13      30.00

WESTERN MEXICO

CITY           SKY/WX    TMP DP  RH WIND       PRES   REMARKS
AGUASCALIENTES CLOUDY    61  45  55 W7        30.25
COLIMA         CLOUDY    79  63  57 CALM      30.04R
DURANGO        CLOUDY    55  36  47 S13       30.20R
GUADALAJARA    CLOUDY    66  54  63 CALM      30.19
MANZANILLO     MOCLDY    81  73  78 NW6       29.89R
MAZATLAN       CLOUDY    70  61  73 S8        29.99S
PTO. VALLARTA  CLOUDY    77  68  73 SW6       29.98R
TEPIC          CLOUDY    63  57  82 E6        30.09R
URUAPAN        CLOUDY    66  57  72 CALM      30.21R
ZACATECAS      CLOUDY    52  45  76 S12       30.28S

CENTRAL MEXICO

CITY           SKY/WX    TMP DP  RH WIND       PRES   REMARKS
CUERNAVACA     MOCLDY    75  45  33 CALM      30.09R
LEON           CLOUDY    66  43  42 W5        30.28R
MEXICO CITY    PTCLDY    68  37  32 S2        30.28R
MORELIA        MOCLDY    64  50  59 S6        30.23
POZA RICA      CLEAR     73  66  78 E9        29.96R
PUEBLA         MOCLDY    61  46  59 SW6       30.29R
QUERETARO      PTCLDY    64  43  45 NW5       30.26R
S. LUIS POTOSI MOCLDY    68  45  42 SW7       30.19R
TAMPICO        PTCLDY    72  70  94 SE7       29.95R
TOLUCA         MOCLDY    55  39  54 SE7       30.37R
VERACRUZ       MOCLDY    73  68  83 E3        29.94R

SOUTHERN MEXICO

CITY           SKY/WX    TMP DP  RH WIND       PRES   REMARKS
ACAPULCO       MOCLDY    82  73  74 W8        29.88R
B. DE HUATULCO CLOUDY    75  68  78 CALM      29.96
MINATITLAN     CLOUDY    73  68  83 N7        29.91
OAXACA         CLOUDY    68  45  42 S8        30.15
PTO. ESCONDIDO MOCLDY    79  72  78 S9        30.10S
TAPACHULA      CLEAR     81  75  83 CALM      29.92R
TUX. GUTIERREZ PTCLDY    75  63  64 W6        29.95R
VILLAHERMOSA   MOCLDY    75  72  88 NE3       29.94R
ZIHUATANEJO    MOCLDY    82  70  65 CALM      29.90R

YUCATAN PENINSULA

CITY           SKY/WX    TMP DP  RH WIND       PRES   REMARKS
CAMPECHE       CLEAR     82  70  65 E14       29.94R
CANCUN         MOCLDY    79  72  78 SE9       30.06S
CHETUMAL       PTCLDY    81  75  83 CALM      30.01
C. DEL CARMEN  PTCLDY    82  72  69 SE8       29.95
COZUMEL        PTCLDY    72  72 100 E6        30.05S
MERIDA         CLEAR     77  66  69 SE7       30.01R

$$




USA.gov is the U.S. government's official web portal to all federal, state and local government web resources and services.